Powrót do katalogu

SL-14 DEB

AktywnyPO
NORAD 25221·DEBRIS·🇷🇺 Russia

Wystrzelony Aug 18, 1987 z Plesetsk Cosmodrome

Loading…

Następne Przeloty (najbliższe 24 godziny)

TLE

ŚwieżeSource: Space-Track

Epoka: Sep 14, 2026, 15:08 UTC

1 25221U 87068AY  26257.63112932  .00000335  00000-0  42388-3 0  9999
2 25221  82.3000  25.6089 0165018 190.3698 184.7906 13.55646885410421

Śledź SL-14 DEB w czasie rzeczywistym z AllMySat

Download on the App Store